Regional Weather Roundup
Issued by NWS

Home | Current Version | Previous Version | Graphics & Text | Print | Product List | Glossary On
Versions: 1 2 3 4 5 6 7 8 9 10 11 12 13 14 15 16 17 18 19 20 21 22 23 24 25 26 27 28 29 30 31 32 33 34 35 36 37 38 39 40 41 42 43 44 45 46 47 48 49 50
000
ASUS43 KMPX 190510
RWRMN
WEATHER ROUNDUP FOR MINNESOTA
NATIONAL WEATHER SERVICE TWIN CITIES/CHANHASSEN MN
1200 AM CDT THU OCT 19 2017


NOTE: "FAIR" INDICATES FEW OR NO CLOUDS BELOW 12,000 FEET WITH NO
SIGNIFICANT WEATHER AND/OR OBSTRUCTIONS TO VISIBILITY. N/A MEANS
CURRENT SKY AND/OR WEATHER CONDITIONS ARE NOT AVAILABLE.

MNZ060>063-068>070-190600-
   Twin Cities Metro

CITY           SKY/WX    TMP DP  RH WIND       PRES   REMARKS
TWIN CITIES    CLOUDY    54  29  38 W8        30.02R
ST PAUL        CLOUDY    52  29  41 W6        30.02R
CRYSTAL        CLOUDY    50  27  40 W7        30.00S
BLAINE         CLOUDY    52  28  40 W5        30.01R
LAKEVILLE      CLOUDY    46  30  53 CALM      30.03R
EDEN PRAIRIE   PTCLDY    51  29  42 W6        30.02R
SOUTH ST PAUL  CLOUDY    53  27  37 W5        30.02R
LAKE ELMO      FAIR      50  30  46 W8        30.02S
$$
MNZ001>005-007-008-013>017-022>024-027-028-190600-
   Northwest Minnesota

CITY           SKY/WX    TMP DP  RH WIND       PRES   REMARKS
BEMIDJI        CLOUDY    47  21  36 W14       29.88S
HALLOCK        CLEAR     45  16  31 W10       29.84R
ROSEAU         CLOUDY    48  18  29 W16G24    29.80R
WARROAD        CLOUDY    46  21  36 W16G23    29.78R
THIEF RVR FALL CLOUDY    45  23  42 W13       29.88R
CROOKSTON      CLOUDY    46  23  39 W9        29.90S
FOSSTON        CLOUDY    45  19  36 W12       29.90S
DETROIT LAKES  PTCLDY    50  25  37 W10       29.95S
MOORHEAD       CLOUDY    43  25  49 SW3       29.97R
PARK RAPIDS    CLOUDY    42  27  55 W8        29.93R
MAHNOMEN       FAIR      42  24  49 W10       29.92R
$$
MNZ006-009>011-018-025>026-190600-
   North Central Minnesota

CITY           SKY/WX    TMP DP  RH WIND       PRES   REMARKS
BAUDETTE       CLEAR     50  16  25 W16G31    29.78R
FLAG ISLAND    CLEAR     50  16  25 W20G31    29.72R
INTL FALLS     CLEAR     48  15  26 W14G20    29.76R
WASKISH        CLOUDY    48  30  49 W18G28    29.83S
BIG FORK       CLEAR     52  18  25 W13G20    29.84R
LONGVILLE      CLOUDY    46  25  42 SW6       29.90S
GRAND RAPIDS   CLOUDY    50  21  32 W8        29.90R
CRANE LAKE     CLEAR     48  10  21 W8G17     29.78S
ORR            CLEAR     48  12  23 W10G21    29.78R
COOK           CLEAR     48  18  29 W12G17    29.82R
WALKER         FAIR      48  21  34 W10       29.90R
$$
MNZ012-019>021-037-190600-
   Northeast Minnesota

CITY           SKY/WX    TMP DP  RH WIND       PRES   REMARKS
DULUTH         PTCLDY    46  20  35 W16       29.87R
ELY            CLEAR     48  14  25 W13G20    29.79R
HIBBING        CLOUDY    47  18  31 W6        29.85R
EVELETH        CLOUDY    46   2  16 W9        29.85S
DULUTH HARBOR  CLEAR     54  19  26 SW15G22   29.89R
TWO HARBORS    CLEAR     50  25  37 SW8       29.83S
SILVER BAY     CLEAR     48  16  27 W6        29.81R
GRAND MARAIS     N/A     48  31  51 W8        29.75R
G MARAIS ARPRT CLEAR     45  12  26 W10G17    29.75R
$$
MNZ029>031-032-039>041-046>048-054>057-064-190600-
   West Central Minnesota

CITY           SKY/WX    TMP DP  RH WIND       PRES   REMARKS
FERGUS FALLS   CLOUDY    41  28  60 SW3       29.99S
MORRIS         CLOUDY    45  34  65 W9        29.99S
ALEXANDRIA     CLOUDY    43  31  62 SW7       30.00S
ELBOW LAKE     FAIR      41  31  69 CALM      30.00R
WADENA         CLOUDY    43  27  52 SW5       29.95S
GLENWOOD       CLOUDY    45  36  70 SW8       30.01S
APPLETON       CLOUDY    43  32  65 SW7       30.01F
BENSON         CLOUDY    43  32  65 W6        30.03R
ORTONVILLE     CLOUDY    45  30  57 CALM      30.01F
MADISON        CLOUDY    46  32  57 SW7       30.02F
WILLMAR        FAIR      45  34  65 W7        30.03S
$$
MNZ033>034-036-042>043-049>051-058-059-190600-
   Central Minnesota

CITY           SKY/WX    TMP DP  RH WIND       PRES   REMARKS
ST CLOUD       PTCLDY    45  31  58 SW8       30.00R
SAUK CENTRE    FAIR      45  32  60 W8        29.99S
PAYNESVILLE    CLOUDY    42  34  72 W7        30.02S
AITKIN         CLOUDY    46  21  36 SW6       29.92R
PINE RIVER     CLOUDY    45  23  42 W5        29.96S
BRAINERD       CLOUDY    47  23  38 W10       29.95R
STAPLES        CLOUDY    43  23  45 SW5       29.96R
LONG PRAIRIE   FAIR      43  30  61 S8        29.98S
LITTLE FALLS   CLOUDY    45  18  33 SW5       29.98S
LITCHFIELD     CLOUDY    50  30  46 W3        30.02S
BUFFALO        CLOUDY    46  32  56 SW3       30.02S
MAPLE LAKE     CLOUDY    48  33  55 SW6       30.02S
HUTCHINSON     CLEAR     44  32  63 SW5       30.04S
$$
MNZ037-044-045-052-053-190600-
   East Central Minnesota

CITY           SKY/WX    TMP DP  RH WIND       PRES   REMARKS
PRINCETON      PTCLDY    46  28  49 CALM      29.99F
MORA           CLOUDY    45  28  53 W6        29.99R
CAMBRIDGE      PTCLDY    52  32  46 W5        29.99S
RUSH CITY      CLOUDY    50  27  40 W8        29.98S
MOOSE LAKE     CLOUDY    48  23  37 SW6       29.91R
HINCKLEY       FAIR      45  30  57 SW7       29.96R
CLOQUET        CLOUDY    50  12  22 W9        29.90R
MCGREGOR       CLOUDY    50  21  32 W7        29.92R
$$
MNZ071>073-080-081-089-090-097-098-190600-
   Southwest Minnesota

CITY           SKY/WX    TMP DP  RH WIND       PRES   REMARKS
MONTEVIDEO     CLOUDY    45  27  49 W6        30.03F
GRANITE FALLS  CLOUDY    39  34  80 SW6       30.05F
CANBY          CLOUDY    49  30  47 SW6       30.04F
MARSHALL       CLOUDY    46  31  55 W6        30.05S
REDWOOD FALLS  CLOUDY    48  29  47 W7        30.04S
OLIVIA         CLOUDY    43  32  65 CALM      30.03S
PIPESTONE      CLOUDY    48  27  43 CALM      30.06S
WORTHINGTON    CLOUDY    42  34  73 W5        30.07S
JACKSON        CLOUDY    43  32  65 W5        30.06F
TRACY          CLOUDY    47  33  56 SW7       30.06S
SLAYTON        CLOUDY    41  33  72 NW5       30.07R
$$
MNZ065>067-074>077-082>085-091>093-190600-
   South Central Minnesota

CITY           SKY/WX    TMP DP  RH WIND       PRES   REMARKS
MANKATO        PTCLDY    47  30  51 CALM      30.05R
NEW ULM        PTCLDY    45  30  57 W5        30.05R
ST JAMES       PTCLDY    45  30  57 W5        30.06S
FAIRMONT       CLOUDY    46  32  58 CALM      30.05F
GLENCOE        CLOUDY    46  33  61 W5        30.03S
FARIBAULT      CLOUDY    46  30  53 CALM      30.04S
OWATONNA       CLOUDY    43  32  65 W3        30.04S
WASECA         CLOUDY    39  34  81 CALM      30.06R
$$
MNZ078>079-086>088-094>096-190600-
   Southeast Minnesota

CITY           SKY/WX    TMP DP  RH WIND       PRES   REMARKS
ROCHESTER      CLEAR     49  30  48 NW10      30.04R
RED WING       CLEAR     50  25  37 CALM      30.01S
STANTON        PTCLDY    48  30  49 CALM      30.02R
DODGE CENTER   CLEAR     52  25  35 NW9       30.03F
WINONA         PTCLDY    55  30  38 W7        30.02R
AUSTIN         CLOUDY    48  30  49 NW5       30.04S
PRESTON        CLOUDY    50  28  42 NW9       30.04R
$$
ABBREVIATIONS USED IN REMARKS
   TC - TEMPERATURES IN CELSIUS
  WCI - WIND CHILL INDEX
   HX - HEAT INDEX
  VSB - VISIBILITY
$$




USA.gov is the U.S. government's official web portal to all federal, state and local government web resources and services.